FENGYUN 1C DEB

Satellite information

Favourite Embed

Satellite Type and Status

DEBRISIN ORBIT

Key statistics

Satellite FENGYUN 1C DEB at a glance.

Uptime

9715

Days in orbit

Revolutions

≈ 12.0

Per day

Orbit

MEO

Medium Earth Orbit

Inclination

98.6

Latest

Satellite identification and parameters

Extended collection of information and parameters for FENGYUN 1C DEB.

Object identification

Identified? True

Debris? True

Object name: FENGYUN 1C DEB

International designator: 1999-025EGL

Object number (NORAD): 37418

Object ID (CCSDS): 37418

Country: PEOPLES REPUBLIC OF CHINA (PRC)

Current information (Y/N): Y

RCS size: SMALL

Orbital parameters

Period: 120.491 minutes

Inclination: 98.6124 deg

SMA: 8080.956 km

Apoapsis: 2573.718 km

Periapsis: 831.924 km

RAAN: 234.8635 deg

Eccentricy: 0.10777154

Argument of periapsis: 331.8071 deg

Mean anomaly: 22.8442 deg

Mean motion: 11.95112147 rev/day

Mean motion (dot): 0.00001984 rev/day2

B* drag term: 0.0048233577 1/REarth

Two-line elements (TLE)

Creation date: Dec. 7, 2025, 5:42 a.m.

Reference frame: TEME

Reference center: EARTH

Epoch: Dec. 6, 2025, 4:12 p.m. UTC

TLE line 0: 0 FENGYUN 1C DEB

TLE line 1: 1 37418U 99025EGL 25340.67541753 .00001984 00000-0 48234-2 0 9995

TLE line 2: 2 37418 98.6124 234.8635 1077715 331.8071 22.8442 11.95112147494121

Live tracking on map

Real-time ground track for satellite FENGYUN 1C DEB.

In-orbit conjunctions

A list of the most updated potential collisions computed for object FENGYUN 1C DEB.

Target Orbit TCA Probability of collision Miss distance Type
SL-14 DEB LEO 2025-04-06 23:57:58 0.0001649726 17.0 (m) DEBRIS

Associated space launch

Chinese polar orbiting meteorological satellite

FENGYUN 1C DEB was lifted into orbit during the mission ‘Long March 4B | Feng Yun 1C’, on board a Long March 4B space rocket.

The launch took place on May 10, 1999, 1:33 a.m. from Launch Complex 7.

For more information about the launch, click the button.

Launch to space Long March 4B | Feng Yun 1C
Long March 4B | Feng Yun 1C

Agency: N/A

Status: Launch Successful

Launch date: May 10, 1999, 1:33 a.m. UTC

Rocket: Long March 4B

Launch pad: Launch Complex 7

Location: Taiyuan Satellite Launch Center, People's Republic of China

...

Latest news about this satellite

There are no fresh news available about this satellite. Check back as we update our databases every day.


Newsletter sign-up

Weekly statistics, charts and insights to help you stay on top of the space industry.